Twin Bridges, CA

6:00 AM PDT on September 28, 2016 (GMT -0700)
Lake Tahoe

Weather History for KTVL - July, 2012

Change the Weather History Date:

Tuesday, July 3, 2012

  Actual Average Record
Temperature  
Mean Temperature 61 °F 59 °F  
Max Temperature 78 °F 78 °F 89 °F (1984)
Min Temperature 43 °F 40 °F 28 °F (1978)
Degree Days  
Heating Degree Days 4 6  
Month to date heating degree days 15 19  
Since 1 June heating degree days 327 329  
Since 1 July heating degree days 15 19  
Cooling Degree Days 0 0  
Month to date cooling degree days 0 0  
Year to date cooling degree days 0 1  
Since 1 June cooling degree days 0 1  
Growing Degree Days 9 (Base 50)    
Moisture  
Dew Point 44 °F    
Average Humidity 60    
Maximum Humidity 89    
Minimum Humidity 31    
Precipitation  
Precipitation 0.00 in - 0.58 in (1980)
Month to date precipitation 0.00  
Year to date precipitation 10.32  
Sea Level Pressure  
Sea Level Pressure 29.93 in    
Wind  
Wind Speed 3 mph (ESE)    
Max Wind Speed 16 mph    
Max Gust Speed 24 mph    
Visibility 10 miles    
Events      
T = Trace of Precipitation, MM = Missing Value Source: NWS Daily Summary

Daily Weather History Graph

Daily Weather History Graph

Search for Another Location

Airport or City:

Trip Planner

Search our weather history database for the weather conditions in past years. The results will help you decide how hot, cold, wet, or windy it might be!

Date:

Astronomy

Jul. 03, 2012 Rise Set
Actual Time 5:39 AM PDT 8:28 PM PDT
Civil Twilight 5:07 AM PDT 9:00 PM PDT
Nautical Twilight 4:27 AM PDT 9:40 PM PDT
Astronomical Twilight 3:42 AM PDT 10:26 PM PDT
Moon 8:28 PM PDT (7/3) 5:38 AM PDT (7/3)
Length of Visible Light 15h 52m
Length of Day
14h 49m
Full, 100% of the Moon is Illuminated
Jul 3
Full
Jul 10
Last Quarter
Jul 18
New
Jul 26
First Quarter
Aug 1
Full

Hourly Weather History & Observations

Time (PDT) Temp. Windchill Dew Point Humidity Pressure Visibility Wind Dir Wind Speed Gust Speed Precip Events Conditions
12:53 AM 51.1 °F - 45.0 °F 80% 29.93 in 10.0 mi Calm Calm - N/A   Clear
1:53 AM 48.9 °F - 44.1 °F 83% 29.94 in 10.0 mi Calm Calm - N/A   Clear
2:53 AM 46.9 °F - 42.1 °F 83% 29.93 in 10.0 mi Calm Calm - N/A   Clear
3:53 AM 46.0 °F - 42.1 °F 86% 29.93 in 10.0 mi Calm Calm - N/A   Clear
4:53 AM 44.1 °F - 41.0 °F 89% 29.94 in 10.0 mi Calm Calm - N/A   Clear
5:53 AM 43.0 °F 41.3 °F 39.9 °F 89% 29.95 in 10.0 mi Variable 3.5 mph - N/A   Clear
6:53 AM 46.0 °F - 41.0 °F 83% 29.96 in 10.0 mi Calm Calm - N/A   Clear
7:53 AM 55.0 °F - 44.1 °F 67% 29.94 in 10.0 mi Calm Calm - N/A   Clear
8:53 AM 63.0 °F - 48.0 °F 58% 29.94 in 10.0 mi NNE 4.6 mph - N/A   Clear
9:53 AM 66.9 °F - 46.9 °F 49% 29.92 in 10.0 mi NNE 6.9 mph - N/A   Clear
10:53 AM 69.1 °F - 45.0 °F 42% 29.94 in 10.0 mi NNE 9.2 mph - N/A   Clear
11:53 AM 72.0 °F - 46.0 °F 40% 29.94 in 10.0 mi NNE 8.1 mph - N/A   Clear
12:53 PM 73.0 °F - 45.0 °F 37% 29.94 in 10.0 mi NNE 9.2 mph - N/A   Clear
1:53 PM 75.9 °F - 46.9 °F 36% 29.92 in 10.0 mi NNE 9.2 mph 16.1 mph N/A   Clear
2:53 PM 75.9 °F - 46.0 °F 35% 29.91 in 10.0 mi Variable 5.8 mph - N/A   Scattered Clouds
3:53 PM 75.9 °F - 45.0 °F 33% 29.91 in 10.0 mi SW 9.2 mph 18.4 mph N/A   Clear
4:53 PM 75.9 °F - 44.1 °F 32% 29.91 in 10.0 mi SSW 12.7 mph 19.6 mph N/A   Clear
5:53 PM 75.0 °F - 43.0 °F 32% 29.91 in 10.0 mi South 12.7 mph 18.4 mph N/A   Clear
6:53 PM 71.1 °F - 42.1 °F 35% 29.92 in 10.0 mi South 9.2 mph - N/A   Clear
7:53 PM 66.9 °F - 43.0 °F 42% 29.91 in 10.0 mi SSW 8.1 mph - N/A   Clear
8:53 PM 64.0 °F - 44.1 °F 48% 29.91 in 10.0 mi South 6.9 mph - N/A   Mostly Cloudy
9:53 PM 59.0 °F - 44.1 °F 58% 29.93 in 10.0 mi Calm Calm - N/A   Clear
10:53 PM 55.0 °F - 43.0 °F 64% 29.94 in 10.0 mi Calm Calm - N/A   Clear
11:53 PM 53.1 °F - 43.0 °F 69% 29.94 in 10.0 mi Calm Calm - N/A   Clear